Location: Geyikbay?r?
(36.8756°N, 30.4583°E)
Time: 17:15:01
(UTC+00:00)

ATLAS 5 CENTAUR R/B - Visible Passes

Search period start: 16 April 2026 00:00
Search period end: 26 April 2026 00:00
Orbit: 363 x 1069 km, 63.3° (Epoch: 16 April)

Date Brightness Start Highest point End Pass type
(mag) Time Alt. Az. Time Alt. Az. Time Alt. Az.
21 Apr 4.4 20:23:32 10° N 20:24:16 14° N 20:24:16 14° N visible
22 Apr 4.2 19:31:16 10° NNE 19:32:03 12° NNE 19:32:03 12° NNE visible
22 Apr 4.7 21:11:04 10° NNW 21:11:10 11° NNW 21:11:10 11° NNW visible
23 Apr 4.1 20:17:35 10° NNW 20:18:57 19° N 20:18:57 19° N visible
24 Apr 3.7 19:24:33 10° N 19:26:44 19° NNE 19:26:44 19° NNE visible
24 Apr 4.6 21:05:36 10° NW 21:05:52 12° NW 21:05:52 12° NW visible
25 Apr 4.1 18:33:15 10° NE 18:33:48 10° NE 18:34:21 10° NE visible
25 Apr 3.7 20:11:45 10° NNW 20:13:39 26° NNW 20:13:39 26° NNW visible
